Location: Hormuz
(27.0871°N, 56.4580°E)
Time: 04:52:46
(UTC+04:30)

X-37B - Pass Details

Date: 22 June 2021
Orbit: 383 x 392 km, 45.0° (Epoch: 01 July)

Event Time Altitude Azimuth Distance (km) Brightness Sun altitude
Rises 04:43:53 0° 314° (NW) 2,256 4.4 -13.6°
Reaches altitude 10° 04:45:59 10° 319° (NW) 1,403 3.3 -13.2°
Maximum altitude 04:49:04 51° 37° (NE) 487 1.5 -12.6°
Drops below altitude 10° 04:52:09 10° 115° (ESE) 1,402 3.8 -12.0°
Sets 04:54:15 0° 120° (ESE) 2,255 4.8 -11.7°
